[[{"header":{"parameterUnit":"m.s-1","parameterCategory":1,"la1":30.2991,"la2":30.254,"lo1":-89.0895,"lo2":-89.0444,"dy":0.0017,"dx":0.0017,"nx":28,"ny":28,"refTime":"2025-04-24T09:00:00:Z","depth":0,"parameterNumber":2,"parameterNumberName":"U-component_of_WINDS"},"data":[0,0,0,0,0,0,0,0,0,0,0,0,0,0,0,0,0,0,0,0,0,0,0,0,0,0,0,0,0,0,0,0,0,0,0,0,0,0,0,0,0,0,0,0,0,0,0,0,0,0,0,0,0,0,0,0,0,0,-0.6381,-0.6382,0,-0.6473,-0.6474,-0.6475,-0.6514,-0.6513,-0.6513,-0.6513,-0.6611,-0.6614,-0.6616,0,0,0,0,0,0,0,0,0,0,0,0,0,-0.6243,-0.6245,-0.6381,-0.6382,-0.6383,-0.6473,-0.6474,-0.6475,-0.6514,-0.6513,-0.6513,-0.6513,-0.661,-0.6613,-0.6617,0,0,0,0,0,0,0,0,0,0,0,0,0,-0.6315,-0.6246,-0.6381,-0.6413,-0.6417,-0.6472,-0.6474,-0.6476,-0.6514,-0.6513,-0.6513,-0.6513,-0.6609,-0.6613,-0.6617,-0.6648,0,0,-0.663,-0.6632,0,0,0,0,0,0,0,0,-0.6311,-0.6321,-0.6407,-0.6411,-0.6415,-0.6481,-0.6461,-0.6534,-0.6514,-0.6477,-0.6513,-0.6513,-0.6568,-0.6576,-0.6594,-0.6653,-0.6657,-0.663,-0.6633,-0.6634,-0.6636,0,0,0,0,0,0,0,-0.6306,-0.6317,-0.6417,-0.6408,-0.6413,-0.6424,-0.6434,-0.6475,-0.6523,-0.648,-0.6483,-0.6493,-0.657,-0.659,-0.6596,-0.6659,-0.663,-0.6634,-0.6636,-0.6638,-0.675,-0.6751,0,0,0,0,0,0,-0.6295,-0.6312,-0.6414,-0.642,-0.6361,-0.6427,-0.6438,-0.646,-0.6523,-0.6532,-0.6493,-0.6495,-0.6583,-0.6591,-0.66,-0.6642,-0.6634,-0.6638,-0.6641,-0.675,-0.675,-0.6751,0,0,0,0,0,0,-0.6292,-0.6304,-0.6411,-0.6367,-0.6381,-0.643,-0.6454,-0.6462,-0.6482,-0.6533,-0.6542,-0.6504,-0.6583,-0.6594,-0.6636,-0.6646,-0.664,-0.6644,-0.6749,-0.675,-0.675,-0.6725,0,0,0,0,0,0,-0.6288,-0.6303,-0.6314,-0.6367,-0.6384,-0.6444,-0.6455,-0.6464,-0.6488,-0.6491,-0.6545,-0.6554,-0.6583,-0.663,-0.664,-0.6651,-0.6647,-0.6748,-0.6749,-0.675,-0.6725,-0.6724,-0.6724,0,0,0,0,0,-0.6283,-0.6304,-0.6314,-0.6326,-0.6399,-0.6444,-0.6454,-0.6487,-0.6489,-0.6501,-0.6535,-0.6552,-0.6643,-0.6634,-0.6646,-0.6658,-0.6748,-0.6749,-0.675,-0.6725,-0.6724,-0.6724,0,0,0,0,0,0,-0.6251,-0.6311,-0.6324,-0.6362,-0.6398,-0.6451,-0.6468,-0.6485,-0.6522,-0.6523,-0.6563,-0.6575,-0.6614,-0.664,-0.6629,-0.6693,-0.6697,-0.67,-0.6674,-0.6674,-0.6673,-0.6666,-0.6651,0,0,0,0,0,-0.6249,-0.628,-0.6331,-0.6359,-0.6377,-0.6419,-0.644,-0.6462,-0.6501,-0.6517,-0.6553,-0.6592,-0.6629,-0.6653,-0.669,-0.6729,-0.6742,-0.6744,-0.6743,-0.6743,-0.6745,-0.6769,-0.6771,-0.6754,-0.6754,-0.6754,0,0,-0.6244,-0.628,-0.6297,-0.6354,-0.6384,-0.6417,-0.6431,-0.6465,-0.649,-0.6523,-0.6564,-0.6592,-0.6638,-0.6679,-0.6699,-0.6703,-0.6753,-0.6744,-0.6743,-0.6746,-0.677,-0.6772,-0.6773,-0.6755,-0.6755,-0.6755,0,0,-0.6251,-0.6282,-0.6309,-0.6339,-0.6385,-0.6413,-0.6419,-0.647,-0.649,-0.6532,-0.6558,-0.6589,-0.6652,-0.6684,-0.6708,-0.6729,-0.6747,-0.674,-0.6738,-0.676,-0.6762,-0.6763,-0.6771,-0.6774,-0.6742,-0.6742,-0.6742,0,-0.624,-0.6288,-0.6322,-0.6354,-0.6379,-0.6409,-0.6438,-0.6466,-0.6522,-0.6539,-0.6542,-0.6622,-0.6655,-0.6704,-0.6709,-0.6728,-0.6738,-0.6734,-0.6759,-0.676,-0.6762,-0.677,-0.6773,-0.6741,-0.6741,-0.6742,-0.6742,0,-0.6273,-0.6306,-0.6323,-0.6375,-0.6402,-0.6432,-0.6472,-0.6495,-0.6515,-0.6543,-0.6587,-0.6627,-0.6674,-0.6687,-0.6707,-0.674,-0.6741,-0.675,-0.6756,-0.6762,-0.677,-0.6774,-0.674,-0.674,-0.674,-0.6741,0,0,-0.6262,-0.6332,-0.6338,-0.6363,-0.6415,-0.6443,-0.6475,-0.652,-0.6539,-0.6577,-0.6606,-0.666,-0.6669,-0.6697,-0.6721,-0.6741,-0.6756,-0.6749,-0.6751,-0.6749,-0.6796,-0.6788,-0.6791,-0.6768,-0.6769,-0.677,-0.6792,0,-0.6278,-0.6336,-0.6367,-0.6413,-0.6445,-0.6474,-0.6503,-0.6539,-0.6567,-0.6599,-0.6631,-0.6668,-0.6677,-0.6694,-0.6715,-0.675,-0.6766,-0.6748,-0.6797,-0.6799,-0.6785,-0.6795,-0.6787,-0.6806,-0.6795,-0.6796,-0.6796,0,-0.6303,-0.6339,-0.6387,-0.6437,-0.6452,-0.6477,-0.652,-0.6551,-0.6593,-0.6612,-0.6643,-0.6667,-0.6705,-0.6707,-0.6759,-0.6747,-0.6769,-0.6789,-0.6791,-0.6797,-0.6798,-0.6802,-0.6813,-0.6816,-0.6802,-0.6801,-0.6801,0,-0.6291,-0.6352,-0.6389,-0.6409,-0.6468,-0.6485,-0.6511,-0.6553,-0.6578,-0.6617,-0.6633,-0.6676,-0.67,-0.6733,-0.6769,-0.6767,-0.6819,-0.6824,-0.6836,-0.6836,-0.6846,-0.6845,-0.6861,-0.6859,-0.6859,-0.6859,-0.6859,0,-0.6305,-0.6334,-0.6385,-0.6408,-0.6441,-0.6478,-0.6511,-0.6539,-0.6576,-0.6606,-0.6635,-0.6663,-0.6708,-0.6742,-0.677,-0.681,-0.6821,-0.6838,-0.6845,-0.6836,-0.6833,-0.6851,-0.6851,-0.686,-0.686,-0.686,-0.686,0,-0.6298,-0.6333,-0.6375,-0.6428,-0.6442,-0.6464,-0.651,-0.6534,-0.6563,-0.6601,-0.6612,-0.6658,-0.67,-0.6738,-0.6794,-0.6814,-0.6854,-0.6863,-0.6839,-0.6843,-0.6854,-0.6853,-0.6882,-0.6888,-0.6882,-0.6882,-0.6882,0,-0.6304,-0.6327,-0.6381,-0.6403,-0.6427,-0.6462,-0.6487,-0.6525,-0.655,-0.6601,-0.6619,-0.6663,-0.6699,-0.6765,-0.6805,-0.6848,-0.6859,-0.6866,-0.6865,-0.6855,-0.686,-0.6858,-0.6861,-0.6865,-0.6865,-0.6865,-0.6865,0,-0.6312,-0.6329,-0.6363,-0.6404,-0.6433,-0.6468,-0.6504,-0.652,-0.6565,-0.6592,-0.6635,-0.6663,-0.672,-0.6763,-0.6811,-0.6839,-0.686,-0.6865,-0.687,-0.6861,-0.6846,-0.6855,-0.6838,-0.6864,-0.6864,-0.6864,-0.6864,-0.6864,-0.6312,-0.6334,-0.6376,-0.6414,-0.6444,-0.6477,-0.6503,-0.6535,-0.657,-0.6618,-0.6639,-0.6682,-0.6726,-0.6792,-0.682,-0.6855,-0.686,-0.6868,-0.687,-0.6871,-0.6869,-0.684,-0.6864,-0.6864,-0.6865,-0.6865,-0.6865,0,-0.6322,-0.6351,-0.6385,-0.6434,-0.6464,-0.648,-0.652,-0.6545,-0.6582,-0.662,-0.6656,-0.6705,-0.6748,-0.6791,-0.6836,-0.6856,-0.6867,-0.6867,-0.6866,-0.6872,-0.6862,-0.6853,-0.6857,-0.6857,-0.6857,-0.6857,-0.6857,-0.6857,-0.6331,-0.6369,-0.639,-0.6444,-0.6473,-0.6514,-0.6536,-0.6568,-0.6598,-0.6651,-0.6686,-0.6714,-0.6755,-0.6803,-0.6843,-0.6855,-0.6871,-0.6868,-0.6883,-0.6873,-0.6873,-0.6873,-0.6865,-0.6871,-0.6871,-0.689,-0.689,-0.689]},{"header":{"parameterUnit":"m.s-1","parameterCategory":1,"la1":30.2991,"la2":30.254,"lo1":-89.0895,"lo2":-89.0444,"dy":0.0017,"dx":0.0017,"nx":28,"ny":28,"refTime":"2025-04-24T09:00:00:Z","depth":0,"parameterNumber":3,"parameterNumberName":"V-component_of_WINDS"},"data":[0,0,0,0,0,0,0,0,0,0,0,0,0,0,0,0,0,0,0,0,0,0,0,0,0,0,0,0,0,0,0,0,0,0,0,0,0,0,0,0,0,0,0,0,0,0,0,0,0,0,0,0,0,0,0,0,0,0,2.8049,2.8049,0,2.8068,2.8068,2.8068,2.8032,2.803,2.8029,2.8028,2.8045,2.8047,2.8048,0,0,0,0,0,0,0,0,0,0,0,0,0,2.798,2.7982,2.8049,2.8049,2.805,2.8068,2.8068,2.8068,2.8032,2.803,2.8029,2.8028,2.8045,2.8046,2.8048,0,0,0,0,0,0,0,0,0,0,0,0,0,2.8005,2.7982,2.8049,2.8034,2.8033,2.8068,2.8068,2.8068,2.8032,2.803,2.8029,2.8027,2.8044,2.8046,2.8049,2.8099,0,0,2.8056,2.8057,0,0,0,0,0,0,0,0,2.8004,2.8008,2.8036,2.8035,2.8034,2.8046,2.805,2.8078,2.8033,2.8032,2.8028,2.8026,2.8047,2.8049,2.8056,2.81,2.81,2.8056,2.8057,2.8058,2.8059,0,0,0,0,0,0,0,2.8002,2.8007,2.8056,2.8036,2.8035,2.8025,2.8027,2.8055,2.8049,2.8032,2.803,2.8032,2.8046,2.8054,2.8056,2.8101,2.8056,2.8058,2.8059,2.806,2.8186,2.8188,0,0,0,0,0,0,2.8003,2.8006,2.8056,2.8057,2.8014,2.8028,2.803,2.8044,2.8049,2.8048,2.8034,2.8031,2.8051,2.8053,2.8056,2.8115,2.8058,2.806,2.8062,2.8184,2.8187,2.8189,0,0,0,0,0,0,2.8002,2.8008,2.8055,2.8031,2.8036,2.8031,2.8047,2.8045,2.8053,2.805,2.8049,2.8043,2.8049,2.8053,2.8089,2.8116,2.8062,2.8064,2.8182,2.8185,2.8188,2.8234,0,0,0,0,0,0,2.8,2.8007,2.8027,2.8031,2.8038,2.8088,2.8048,2.8046,2.8057,2.8053,2.8059,2.8058,2.8048,2.8085,2.8091,2.8118,2.8065,2.818,2.8183,2.8187,2.823,2.8238,2.8245,0,0,0,0,0,2.7997,2.8039,2.8028,2.8034,2.8062,2.8089,2.8093,2.8081,2.806,2.8079,2.8077,2.8058,2.8112,2.8089,2.8095,2.8123,2.8178,2.8182,2.8186,2.8227,2.8237,2.8245,0,0,0,0,0,0,2.8037,2.8039,2.8027,2.8072,2.8081,2.8083,2.8107,2.8092,2.8107,2.8102,2.8087,2.8089,2.8127,2.8129,2.8103,2.8172,2.8141,2.8147,2.817,2.8179,2.8186,2.8185,2.8067,0,0,0,0,0,2.8051,2.8074,2.8074,2.8113,2.8118,2.8112,2.8124,2.8114,2.8123,2.8126,2.8127,2.8135,2.8154,2.8167,2.8184,2.823,2.8231,2.8253,2.826,2.8266,2.8271,2.8296,2.8305,2.8203,2.8203,2.8203,0,0,2.8079,2.8084,2.8099,2.8121,2.8127,2.815,2.8115,2.8141,2.8158,2.813,2.8163,2.8164,2.8172,2.8214,2.8232,2.8216,2.83,2.8272,2.8277,2.8278,2.8301,2.8311,2.832,2.8206,2.8205,2.8205,0,0,2.8144,2.815,2.8183,2.8189,2.8199,2.8195,2.8203,2.8208,2.8207,2.8241,2.822,2.824,2.8273,2.8279,2.8287,2.8355,2.8337,2.8361,2.84,2.8424,2.8432,2.8439,2.8462,2.8471,2.8366,2.8366,2.8366,0,2.8178,2.8213,2.8201,2.8229,2.8239,2.8215,2.8248,2.8255,2.827,2.8277,2.826,2.8301,2.8304,2.8347,2.8363,2.8371,2.8379,2.836,2.8432,2.8439,2.8445,2.8467,2.8476,2.8369,2.8368,2.8368,2.8368,0,2.8255,2.8279,2.8305,2.832,2.8333,2.8363,2.8356,2.837,2.836,2.8357,2.8392,2.8396,2.8413,2.8423,2.8412,2.8464,2.8454,2.8434,2.8403,2.8458,2.8479,2.8487,2.8373,2.8372,2.8371,2.837,0,0,2.8344,2.8353,2.8362,2.8369,2.8378,2.8396,2.8425,2.8443,2.8456,2.8467,2.849,2.8519,2.8501,2.851,2.8501,2.8522,2.8575,2.85,2.85,2.8513,2.8631,2.8645,2.8655,2.8563,2.8565,2.8566,2.863,0,2.8407,2.8458,2.8448,2.8497,2.852,2.8497,2.8523,2.8531,2.8529,2.8547,2.8545,2.8565,2.8541,2.8546,2.8566,2.8564,2.8598,2.8559,2.8584,2.8586,2.8583,2.8666,2.8681,2.8741,2.8638,2.864,2.8641,0,2.8488,2.8503,2.8554,2.856,2.8569,2.8592,2.8608,2.8626,2.8634,2.8631,2.8642,2.8628,2.8656,2.8625,2.8663,2.8637,2.8647,2.8648,2.865,2.8651,2.8616,2.8669,2.876,2.8769,2.8653,2.8652,2.8651,0,2.8547,2.858,2.8615,2.8622,2.8629,2.8646,2.865,2.8657,2.8668,2.8681,2.8689,2.8705,2.8714,2.8727,2.8718,2.8696,2.8758,2.8725,2.8756,2.8756,2.8769,2.8768,2.8862,2.8776,2.8776,2.8776,2.8776,0,2.8619,2.8651,2.8642,2.8664,2.8699,2.8687,2.8723,2.8724,2.873,2.8751,2.8733,2.8752,2.874,2.8758,2.8751,2.8784,2.8788,2.8786,2.8784,2.8788,2.8788,2.8794,2.8789,2.8778,2.8778,2.8777,2.8777,0,2.8691,2.8686,2.8723,2.8727,2.8729,2.8755,2.8759,2.8778,2.8776,2.8802,2.8808,2.8803,2.8824,2.8817,2.8839,2.8835,2.8876,2.8869,2.8874,2.8871,2.8902,2.8899,2.9002,2.9015,2.8921,2.8922,2.8923,0,2.8737,2.8761,2.8769,2.8782,2.8787,2.8808,2.882,2.881,2.8823,2.8834,2.8853,2.8872,2.8887,2.8922,2.892,2.8937,2.893,2.8965,2.8932,2.8935,2.893,2.8928,2.893,2.8971,2.8972,2.8973,2.8974,0,2.8819,2.8815,2.8833,2.8851,2.8866,2.8879,2.889,2.8901,2.8892,2.8907,2.8929,2.8941,2.8964,2.8983,2.8999,2.9002,2.8986,2.8984,2.8992,2.8996,2.8997,2.8997,2.8891,2.8982,2.8981,2.898,2.898,2.898,2.8879,2.8899,2.8908,2.8929,2.8936,2.8947,2.8966,2.8966,2.8984,2.9003,2.8995,2.902,2.9028,2.9047,2.9053,2.9071,2.9058,2.9069,2.9072,2.9075,2.9079,2.8995,2.9074,2.9074,2.9074,2.9074,2.9073,0,2.8959,2.8964,2.8983,2.9,2.9016,2.9001,2.9013,2.9027,2.9049,2.9058,2.9074,2.9099,2.9118,2.9118,2.9135,2.915,2.9144,2.9155,2.9154,2.9155,2.909,2.9081,2.916,2.916,2.916,2.916,2.916,2.916,2.9003,2.9037,2.9035,2.9072,2.9076,2.9101,2.9109,2.9119,2.9126,2.9155,2.9171,2.9171,2.9176,2.9194,2.9211,2.921,2.9217,2.9232,2.9228,2.9168,2.9159,2.9151,2.9143,2.9233,2.9233,2.9291,2.9292,2.9292]}]]